Akron, CO

5:48 PM MST on November 12, 2019 (GMT -0700)
Akron-Washington County

Weather History for KAKO - August, 2019

Change the Weather History Date:

Thursday, August 22, 2019

  Actual Average Record
Temperature  
Mean Temperature 72 °F 71 °F  
Max Temperature 88 °F 85 °F 98 °F (2003)
Min Temperature 56 °F 58 °F 44 °F (1966)
Degree Days  
Heating Degree Days 0    
Month to date heating degree days 0  
Cooling Degree Days 7    
Month to date cooling degree days 220  
Growing Degree Days 21 (Base 50)    
Moisture  
Dew Point 57 °F    
Average Humidity 67    
Maximum Humidity 100    
Minimum Humidity 34    
Precipitation  
Precipitation 0.33 in 0.06 in 1.55 in (2014)
Month to date precipitation 3.10 1.76  
Year to date precipitation 14.19 12.95  
Snow  
Snow 0.00 in - - ()
Snow Depth 0.00 in    
Sea Level Pressure  
Sea Level Pressure 29.97 in    
Wind  
Wind Speed 15 mph (ESE)    
Max Wind Speed 29 mph    
Max Gust Speed 40 mph    
Visibility 10 miles    
Events Rain , Thunderstorm    
T = Trace of Precipitation, MM = Missing Value Source: NWS Daily Summary

Daily Weather History Graph

Daily Weather History Graph

Search for Another Location

Airport or City:

Astronomy

Aug. 22, 2019 Rise Set
Actual Time 6:10 AM MDT 7:40 PM MDT
Civil Twilight 5:42 AM MDT 8:08 PM MDT
Nautical Twilight 5:07 AM MDT 8:42 PM MDT
Astronomical Twilight 4:31 AM MDT 9:19 PM MDT
Moon 11:30 PM MDT (8/22) 12:49 PM MDT (8/22)
Length of Visible Light 14h 26m
Length of Day
13h 29m
Waning Gibbous, 59% of the Moon is Illuminated
Aug 22
Waning Gibbous
Aug 23
Last Quarter
Aug 30
New
Sep 5
First Quarter
Sep 13
Full

Hourly Weather History & Observations

Time (MDT) Temp. Heat Index Dew Point Humidity Pressure Visibility Wind Dir Wind Speed Gust Speed Precip Events Conditions
12:53 AM 66.9 °F - 64.0 °F 90% 29.95 in 10.0 mi SE 16.1 mph - N/A   Overcast
1:09 AM 66.9 °F - 64.0 °F 90% 30.12 in 10.0 mi SE 18.4 mph - N/A   Overcast
1:53 AM 66.9 °F - 64.0 °F 90% 29.94 in 10.0 mi SSE 13.8 mph - N/A   Overcast
2:04 AM 66.9 °F - 64.0 °F 90% 30.11 in 10.0 mi SE 13.8 mph - N/A   Overcast
2:12 AM 66.9 °F - 64.0 °F 90% 30.11 in 10.0 mi SE 11.5 mph - N/A   Overcast
2:38 AM 64.9 °F - 60.1 °F 84% 30.15 in 10.0 mi NNE 26.5 mph 35.7 mph N/A   Overcast
2:49 AM 59.0 °F - 55.4 °F 88% 30.14 in 10.0 mi NNE 24.2 mph 35.7 mph 0.00 in Rain , Thunderstorm Light Rain
2:53 AM 57.9 °F - 55.0 °F 90% 29.98 in 10.0 mi NNE 18.4 mph 35.7 mph 0.00 in Rain , Thunderstorm Light Rain
3:31 AM 57.9 °F - 55.9 °F 93% 30.12 in 10.0 mi NE 6.9 mph - 0.00 in   Overcast
3:38 AM 57.9 °F - 55.9 °F 93% 30.12 in 10.0 mi NE 8.1 mph - 0.00 in   Overcast
3:53 AM 57.9 °F - 55.9 °F 93% 29.96 in 10.0 mi ENE 8.1 mph - 0.00 in   Overcast
4:07 AM 57.9 °F - 55.9 °F 93% 30.12 in 10.0 mi East 12.7 mph - N/A   Overcast
4:22 AM 57.9 °F - 55.9 °F 93% 30.11 in 10.0 mi East 10.4 mph - N/A   Overcast
4:35 AM 57.0 °F - 55.9 °F 96% 30.11 in 10.0 mi SE 6.9 mph - N/A   Overcast
4:43 AM 57.0 °F - 55.9 °F 96% 30.10 in 10.0 mi SSE 8.1 mph - N/A   Overcast
4:53 AM 57.0 °F - 55.9 °F 96% 29.94 in 10.0 mi ESE 9.2 mph - N/A   Mostly Cloudy
5:25 AM 57.0 °F - 55.0 °F 93% 30.08 in 10.0 mi SSE 9.2 mph - N/A   Scattered Clouds
5:53 AM 55.9 °F - 55.0 °F 97% 29.94 in 10.0 mi South 10.4 mph - N/A   Clear
6:53 AM 57.0 °F - 55.0 °F 93% 29.92 in 10.0 mi South 10.4 mph - N/A   Clear
7:53 AM 64.0 °F - 59.0 °F 84% 29.90 in 10.0 mi South 11.5 mph - N/A   Clear
8:53 AM 68.0 °F - 59.0 °F 73% 29.89 in 10.0 mi South 16.1 mph 25.3 mph N/A   Clear
9:53 AM 73.0 °F - 61.0 °F 66% 29.89 in 10.0 mi SSE 19.6 mph - N/A   Clear
10:53 AM 75.9 °F - 61.0 °F 60% 29.86 in 10.0 mi SSE 19.6 mph - N/A   Clear
11:53 AM 80.1 °F 80.9 °F 60.1 °F 50% 29.84 in 10.0 mi SSE 20.7 mph 28.8 mph N/A   Unknown
12:53 PM 84.0 °F 84.0 °F 60.1 °F 44% 29.80 in 10.0 mi SSE 20.7 mph 28.8 mph N/A   Clear
1:53 PM 84.0 °F 84.0 °F 60.1 °F 44% 29.78 in 10.0 mi South 19.6 mph 28.8 mph N/A   Partly Cloudy
2:53 PM 87.1 °F 86.1 °F 57.9 °F 37% 29.76 in 10.0 mi South 23.0 mph 31.1 mph N/A   Partly Cloudy
3:53 PM 87.1 °F 85.3 °F 55.0 °F 33% 29.74 in 10.0 mi South 20.7 mph 35.7 mph N/A   Clear
4:53 PM 82.0 °F 81.4 °F 55.0 °F 39% 29.74 in 10.0 mi South 23.0 mph 39.1 mph N/A   Clear
5:53 PM 80.1 °F 80.1 °F 55.0 °F 42% 29.81 in 10.0 mi South 13.8 mph - N/A Thunderstorm Thunderstorm
6:11 PM 80.1 °F 80.2 °F 55.9 °F 43% 29.96 in 10.0 mi South 18.4 mph - 0.00 in Rain , Thunderstorm Light Rain
6:21 PM 79.0 °F - 57.0 °F 47% 29.97 in 10.0 mi South 10.4 mph - 0.00 in Thunderstorm Thunderstorm
6:59 PM 63.0 °F - 52.0 °F 67% 30.04 in - NW 23.0 mph - 0.14 in Rain , Thunderstorm Heavy Thunderstorms and Rain
7:09 PM 64.0 °F - 51.1 °F 63% 30.02 in 2.5 mi NNE 17.3 mph 25.3 mph 0.31 in Rain , Thunderstorm Heavy Thunderstorms and Rain
7:11 PM 64.0 °F - 51.1 °F 63% 30.01 in 3.0 mi NE 18.4 mph 25.3 mph 0.32 in Rain , Thunderstorm Heavy Thunderstorms and Rain
7:22 PM 64.9 °F - 51.1 °F 61% 30.00 in 10.0 mi NE 11.5 mph - 0.33 in Rain , Thunderstorm Light Rain
7:39 PM 69.1 °F - 50.0 °F 51% 30.01 in 10.0 mi East 6.9 mph - 0.33 in   Partly Cloudy
7:53 PM 66.9 °F - 52.0 °F 59% 29.88 in 10.0 mi East 9.2 mph - 0.33 in   Clear
8:27 PM 68.0 °F - 54.0 °F 61% 30.05 in 10.0 mi North 15.0 mph - N/A Thunderstorm Thunderstorm
8:48 PM 66.2 °F - 59.0 °F 78% 30.04 in 10.0 mi East 19.6 mph - N/A Thunderstorm Mostly Cloudy
8:51 PM 66.2 °F - 60.8 °F 83% 30.04 in 10.0 mi East 20.7 mph 29.9 mph N/A   Mostly Cloudy
8:53 PM 66.9 °F - 60.1 °F 79% 29.89 in 10.0 mi East 20.7 mph 29.9 mph 0.00 in Rain Light Rain
9:00 PM 66.9 °F - 60.1 °F 79% 30.03 in 10.0 mi East 23.0 mph 31.1 mph 0.00 in Rain Light Rain
9:53 PM 69.1 °F - 62.1 °F 78% 29.84 in 10.0 mi SE 18.4 mph 27.6 mph 0.00 in   Clear
10:53 PM 69.1 °F - 61.0 °F 75% 29.83 in 10.0 mi SSE 17.3 mph - N/A   Clear
11:53 PM 70.0 °F - 60.1 °F 71% 29.78 in 10.0 mi South 15.0 mph - N/A   Clear